Location: Kalberh�ni
(46.4610°N, 7.2453°E)
Time: 05:24:40
(UTC+00:00)

Cosmos 1802 Rocket - Pass Details

Date: 01 November 2021
Orbit: 955 x 1010 km, 82.9° (Epoch: 05 December)

Event Time Altitude Azimuth Distance (km) Brightness Sun altitude
Rises 03:19:18 0° 5° (N) 3,697 7.2 -30.2°
Reaches altitude 10° 03:23:50 10° 35° (NE) 2,758 6.9 -29.4°
Maximum altitude 03:26:11 12° 58° (ENE) 2,609 7.0 -29.0°
Drops below altitude 10° 03:28:32 10° 80° (E) 2,766 7.3 -28.6°
Sets 03:33:05 0° 110° (ESE) 3,721 8.0 -27.9°
